BEIDOU-3 M6 (C24) (43582 NORAD) Tracking and Keplerian Element Data

This shows tracking and keplerian element data for the satellite.

Feedback or suggestion? Click here.




ElementValue
Catalog43582
NameBEIDOU-3 M6 (C24)
Epoch Orbit4430
Epoch Day31.99186405
Epoch Year2025
RAAN199.334
Inclination54.1117
Eccentricity0.0007001
Argument of Perigee46.0242
Mean Anonmoly314.0009
Mean Motion1.86229312
Decay Rate8E-07
L11 43582U 18062B 25031.99186405 .00000080 00000+0 00000+0 0 9998
L22 43582 54.1117 199.3340 0007001 46.0242 314.0009 1.86229312 44300



Live tracking and technical data element details for BEIDOU-3 M6 (C24) (NORAD 43582). BEIDOU-3 M6 (C24) can be tracked NOW for your location showing map with azimuth and elevation plus other details from your city location.







IsCatalogInMostPopularTable: catalog: 43582, numindb: 375
Update: records affected: 1



GetName: 43582 BEIDOU-3 M6 (C24)

Hit Count: updated at: Fri, 16 May 2025 09:59:41 GMT